Current Version              Previous Version:    01  02  03  04  05  06  07  08  09  10  11  12  13  14  15  16  17  18  19  20  21  22  23  24  25  26  27  28  29  30  
   31  32  33  34  35  36  37  38  39  40  41  42  43  44  45  46  47  48  49  50  51  52  53  54  55  56  57  58  59  60  

[Printable]
853
ASUS44 KFWD 252203
RWRTX
NORTH TEXAS HOURLY WEATHER ROUNDUP
NATIONAL WEATHER SERVICE FORT WORTH TX
500 PM CDT SAT OCT 25 2014

NOTE: "FAIR" INDICATES FEW OR NO CLOUDS BELOW 12,000 FEET WITH NO
SIGNIFICANT WEATHER AND/OR OBSTRUCTIONS TO VISIBILITY.

TXZ118-119-252300-
DALLAS/FORT WORTH METROPLEX

CITY           SKY/WX    TMP DP  RH WIND       PRES   REMARKS
DFW AIRPORT    SUNNY     88  59  37 S13       30.05F
DALLAS LOVE    SUNNY     88  58  36 SW8       30.06S
FTW MEACHAM    SUNNY     89  59  36 SE8       30.05F
DAL-EXECUTIVE  SUNNY     88  59  37 VRB5      30.06F
FTW-ALLIANCE   SUNNY     87  58  37 S8        30.05F
FTW-NAS-JRB    SUNNY     92  57  30 S10       30.09F HX  90
FTW-SPINKS     SUNNY     90  57  33 S8        30.08S
ARLINGTON      SUNNY     88  57  34 S9        30.06F
GRAND PRAIRIE  SUNNY     88  61  40 MISG        N/A
ADDISON        SUNNY     86  59  39 S6        30.07S
MESQUITE       SUNNY     88  57  35 S5        30.07S
LANCASTER      SUNNY     87  57  35 S7        30.07F
$$

TXZ091>094-102>105-117-120-121-131>134-252300-
NORTH CENTRAL TEXAS

CITY           SKY/WX    TMP DP  RH WIND       PRES   REMARKS
SHRMAN/DENISON SUNNY     87  64  46 S5        30.07S
GAINESVILLE    SUNNY     87  60  40 S6        30.07F
BOWIE          SUNNY     88  56  33 S6        30.06F
BRIDGEPORT     SUNNY     89  59  35 SW7       30.07S
DECATUR        SUNNY     88  54  31 S7        30.07S
DENTON         SUNNY     88  59  37 S9        30.05S
MCKINNEY       SUNNY     87  60  40 S9        30.06S
GREENVILLE     SUNNY     88  55  33 CALM      30.07S
ROCKWALL       SUNNY     87  62  42 SW7       30.06F
TERRELL        SUNNY     87  62  43 S6        30.07F
WAXAHACHIE     SUNNY     87  60  40 S8        30.08F
CLEBURNE       SUNNY     88  59  37 S6G12     30.08F
GRANBURY       SUNNY     90  56  31 S3        30.07S
$$

TXZ083>090-098>101-113>116-127>130-139>142-154-155-252300-
WESTERN NORTH TEXAS

CITY           SKY/WX    TMP DP  RH WIND       PRES   REMARKS
WICHITA FALLS  SUNNY     90  55  30 S12       30.03F
WF-KICKAPOO    SUNNY     91  51  25 SW9       30.05F
VERNON         SUNNY     91  46  21 SW10      30.04F
ABILENE        SUNNY     88  49  25 SW12      30.09F
ABILENE-DYESS  SUNNY     88  52  28 S14       30.08S
BRECKENRIDGE   SUNNY     91  49  23 S9        30.06S
MINERAL WELLS  SUNNY     90  53  28 SE9       30.04F
STEPHENVILLE   SUNNY     86  55  33 S7        30.11F
COMANCHE       SUNNY     88  57  34 S6        30.09S
BROWNWOOD      SUNNY     86  54  32 S7        30.09S
COLEMAN        SUNNY     89  53  29 SW10      30.09F
BRADY          SUNNY     88  54  31 S7        30.10S
$$

TXZ143>147-156>162-174-175-252300-
CENTRAL TEXAS

CITY           SKY/WX    TMP DP  RH WIND       PRES   REMARKS
WACO           SUNNY     86  60  41 SE8       30.07F
WACO-TSTC      SUNNY     86  59  39 S6        30.07F
WACO-MCGREGOR  SUNNY     88  59  37 S10       30.08F
HILLSBORO      SUNNY     87  56  34 S5        30.08S
CORSICANA      SUNNY     86  59  39 SW6       30.09S
MEXIA          SUNNY     84  61  46 SW3       30.08F
HEARNE         SUNNY     85  61  44 CALM      30.09F
CAMERON        SUNNY     86  61  42 CALM      30.08F
TEMPLE         SUNNY     84  57  39 S7        30.08S
KILLEEN        SUNNY     85  56  37 SE6       30.09F
KILLEEN-SKYLRK SUNNY     88  57  35 S9        30.08S
FORT HOOD      SUNNY     89  59  36 SE7       30.08F
GATESVILLE     SUNNY     88  57  35 S6        30.10F
HAMILTON       SUNNY     87  55  32 SE7G21    30.11S
LAMPASAS       SUNNY     85  58  39 CALM      30.09S
$$

TXZ095>097-106>112-122>126-135>138-148>153-164>167-252300-
EAST TEXAS

CITY           SKY/WX    TMP DP  RH WIND       PRES   REMARKS
PARIS          SUNNY     86  59  39 W6        30.06F
SULPHUR SPRNGS SUNNY     87  60  40 SW7       30.08F
MOUNT PLEASANT SUNNY     85  61  44 W5        30.08S
MINEOLA        SUNNY     84  61  45 S6        30.08S
TYLER          SUNNY     85  61  44 S8        30.08S
LONGVIEW       SUNNY     84  63  49 W6        30.07F
MARSHALL       SUNNY     86  65  49 W5        30.09F
ATHENS         SUNNY     82  61  47 S5        30.07F
PALESTINE      SUNNY     84  63  49 S3        30.10S
JACKSONVILLE   SUNNY     82  62  49 SW3       30.12S
HENDERSON      SUNNY     83  62  49 SW3       30.10S
NACOGDOCHES    SUNNY     81  63  54 W5        30.10S
LUFKIN         SUNNY     85  61  44 CALM      30.09F
$$

SUPPLEMENTAL OBSERVATIONS (CENTRAL)

CITY           SKY/WX    TMP DP  RH WIND       PRES   REMARKS
$$

SUPPLEMENTAL OBSERVATIONS (WEST)

CITY           SKY/WX    TMP DP  RH WIND       PRES   REMARKS
$$

SUPPLEMENTAL OBSERVATIONS (EAST)

CITY           SKY/WX    TMP DP  RH WIND       PRES   REMARKS
$$

SUPPLEMENTAL OBSERVATIONS ARE A COLLECTION OF AUTOMATED INSTRUMENTS
THAT ARE MAINTAINED BY A VARIETY OF FEDERAL AND STATE AGENCIES.
CERTAIN ELEMENTS...SUCH AS HUMIDITY VALUES AND SUSTAINED WIND
SPEEDS...MAY BE APPROXIMATED.